Moriarty, NM

6:07 AM MST on January 23, 2018 (GMT -0700)
Moriarty

Weather History for K0E0 - May, 2013

Change the Weather History Date:

Saturday, May 18, 2013

  Actual Average (KABQ) Record (KABQ)
Temperature  
Mean Temperature 64 °F -  
Max Temperature 77 °F 81 °F 94 °F (1996)
Min Temperature 52 °F 49 °F 32 °F (1930)
Growing Degree Days 14 (Base 50)    
Moisture  
Dew Point 18 °F    
Average Humidity 17    
Maximum Humidity 26    
Minimum Humidity 11    
Precipitation  
Precipitation 0.00 in - - ()
Sea Level Pressure  
Sea Level Pressure 30.03 in    
Wind  
Wind Speed 11 mph (West)    
Max Wind Speed 32 mph    
Max Gust Speed 40 mph    
Visibility 10 miles    
Events      
Averages and records for this station are not official NWS values.
T = Trace of Precipitation, MM = Missing Value Source: NWS Daily Summary

Daily Weather History Graph

Daily Weather History Graph

Search for Another Location

Airport or City:

Trip Planner

Search our weather history database for the weather conditions in past years. The results will help you decide how hot, cold, wet, or windy it might be!

Date:

Astronomy

May. 18, 2013 Rise Set
Actual Time 5:58 AM MDT 8:03 PM MDT
Civil Twilight 5:29 AM MDT 8:31 PM MDT
Nautical Twilight 4:55 AM MDT 9:06 PM MDT
Astronomical Twilight 4:18 AM MDT 9:43 PM MDT
Moon 1:24 PM MDT (5/18) 1:35 AM MDT (5/18)
Length of Visible Light 15h 01m
Length of Day
14h 05m
First Quarter, 56% of the Moon is Illuminated
May 18
First Quarter
May 24
Full
May 31
Last Quarter
Jun 8
New
Jun 16
First Quarter

Hourly Weather History & Observations

Time (MDT) Temp. Dew Point Humidity Pressure Visibility Wind Dir Wind Speed Gust Speed Precip Events Conditions
12:15 AM 59.0 °F 23.2 °F 25% 30.04 in 10.0 mi Calm Calm - N/A   Clear
12:35 AM 57.7 °F 22.6 °F 26% 30.04 in 10.0 mi West 3.5 mph - N/A   Clear
12:55 AM 61.5 °F 18.1 °F 19% 30.04 in 10.0 mi West 8.1 mph - N/A   Clear
1:15 AM 61.3 °F 13.3 °F 15% 30.04 in 10.0 mi WNW 6.9 mph - N/A   Clear
1:35 AM 57.6 °F 14.0 °F 18% 30.04 in 10.0 mi WNW 6.9 mph - N/A   Clear
1:55 AM 55.9 °F 17.6 °F 22% 30.04 in 10.0 mi Calm Calm - N/A   Clear
2:15 AM 54.7 °F 15.3 °F 21% 30.04 in 10.0 mi NW 3.5 mph - N/A   Clear
2:35 AM 60.3 °F 13.1 °F 16% 30.04 in 10.0 mi WNW 10.4 mph - N/A   Clear
2:55 AM 59.9 °F 13.5 °F 16% 30.04 in 10.0 mi NW 9.2 mph - N/A   Clear
3:15 AM 55.4 °F 13.8 °F 19% 30.04 in 10.0 mi NNW 3.5 mph - N/A   Clear
3:35 AM 61.0 °F 13.8 °F 16% 30.04 in 10.0 mi WNW 11.5 mph - N/A   Clear
3:55 AM 59.2 °F 13.6 °F 17% 30.05 in 10.0 mi NW 12.7 mph - N/A   Clear
4:15 AM 58.6 °F 14.0 °F 17% 30.05 in 10.0 mi NW 6.9 mph - N/A   Clear
4:35 AM 55.0 °F 14.0 °F 20% 30.06 in 10.0 mi ENE 3.5 mph - N/A   Scattered Clouds
4:55 AM 56.1 °F 15.6 °F 20% 30.06 in 10.0 mi NW 5.8 mph - N/A   Clear
5:15 AM 52.2 °F 14.0 °F 22% 30.07 in 10.0 mi NW 10.4 mph - N/A   Clear
5:35 AM 57.6 °F 13.1 °F 17% 30.07 in 10.0 mi NW 10.4 mph - N/A   Clear
5:55 AM 54.1 °F 14.0 °F 20% 30.08 in 10.0 mi NW 5.8 mph - N/A   Scattered Clouds
6:15 AM 54.0 °F 14.4 °F 21% 30.08 in 10.0 mi Calm Calm - N/A   Clear
6:35 AM 54.9 °F 14.0 °F 20% 30.10 in 10.0 mi Calm Calm - N/A   Clear
6:55 AM 57.2 °F 14.0 °F 18% 30.10 in 10.0 mi WNW 4.6 mph - N/A   Clear
7:15 AM 59.5 °F 16.2 °F 18% 30.10 in 10.0 mi NW 6.9 mph - N/A   Clear
7:35 AM 63.9 °F 17.1 °F 16% 30.10 in 10.0 mi WNW 6.9 mph - N/A   Clear
7:55 AM 67.5 °F 19.9 °F 16% 30.10 in 10.0 mi WNW 19.6 mph 25.3 mph N/A   Clear
8:15 AM 66.6 °F 19.9 °F 17% 30.10 in 10.0 mi WNW 18.4 mph 24.2 mph N/A   Clear
8:35 AM 68.2 °F 19.9 °F 16% 30.09 in 10.0 mi NW 18.4 mph 24.2 mph N/A   Clear
8:55 AM 69.6 °F 19.6 °F 15% 30.08 in 10.0 mi NW 19.6 mph 25.3 mph N/A   Clear
9:15 AM 71.2 °F 19.4 °F 14% 30.08 in 10.0 mi NW 21.9 mph 27.6 mph N/A   Clear
9:55 AM 69.8 °F 19.9 °F 15% 30.08 in 10.0 mi NW 20.7 mph 29.9 mph N/A   Clear
10:15 AM 72.5 °F 19.8 °F 14% 30.08 in 10.0 mi NW 15.0 mph 25.3 mph N/A   Clear
10:35 AM 72.9 °F 19.2 °F 13% 30.08 in 10.0 mi West 20.7 mph 28.8 mph N/A   Clear
10:55 AM 73.8 °F 19.4 °F 13% 30.07 in 10.0 mi West 18.4 mph 24.2 mph N/A   Clear
11:15 AM 73.8 °F 19.2 °F 13% 30.07 in 10.0 mi West 21.9 mph 27.6 mph N/A   Clear
11:35 AM 74.5 °F 19.2 °F 12% 30.06 in 10.0 mi West 21.9 mph 31.1 mph N/A   Clear
11:55 AM 74.5 °F 18.1 °F 12% 30.06 in 10.0 mi West 13.8 mph 26.5 mph N/A   Clear
12:15 PM 72.3 °F 18.7 °F 13% 30.06 in 10.0 mi WNW 16.1 mph 24.2 mph N/A   Clear
12:35 PM 74.1 °F 17.4 °F 12% 30.05 in 10.0 mi West 19.6 mph 25.3 mph N/A   Clear
12:55 PM 75.2 °F 18.5 °F 12% 30.05 in 10.0 mi West 21.9 mph 28.8 mph N/A   Clear
1:15 PM 73.9 °F 18.7 °F 12% 30.05 in 10.0 mi West 17.3 mph 27.6 mph N/A   Clear
1:35 PM 74.8 °F 19.4 °F 12% 30.04 in 10.0 mi West 17.3 mph 27.6 mph N/A   Clear
1:55 PM 72.5 °F 19.4 °F 13% 30.04 in 10.0 mi West 18.4 mph 23.0 mph N/A   Clear
2:15 PM 77.2 °F 18.7 °F 11% 30.03 in 10.0 mi WSW 26.5 mph 33.4 mph N/A   Clear
2:35 PM 73.2 °F 19.6 °F 13% 30.03 in 10.0 mi West 32.2 mph 36.8 mph N/A   Clear
2:55 PM 72.1 °F 19.6 °F 14% 30.02 in 10.0 mi SW 28.8 mph 39.1 mph N/A   Clear
3:15 PM 74.8 °F 20.5 °F 13% 30.03 in 10.0 mi SW 23.0 mph 40.3 mph N/A   Clear
3:35 PM 74.8 °F 21.0 °F 13% 30.02 in 10.0 mi WSW 16.1 mph 31.1 mph N/A   Clear
3:55 PM 75.0 °F 20.8 °F 13% 30.01 in 10.0 mi WSW 19.6 mph 32.2 mph N/A   Scattered Clouds
4:15 PM 75.4 °F 22.1 °F 14% 30.01 in 10.0 mi SW 25.3 mph 33.4 mph N/A   Scattered Clouds
4:35 PM 74.7 °F 21.4 °F 14% 30.00 in 10.0 mi SSW 19.6 mph 32.2 mph N/A   Clear
4:55 PM 71.8 °F 21.0 °F 15% 29.99 in 10.0 mi WSW 21.9 mph 28.8 mph N/A   Clear
5:15 PM 70.2 °F 23.9 °F 18% 29.98 in 10.0 mi NW 13.8 mph 27.6 mph N/A   Clear
5:35 PM 70.3 °F 24.8 °F 18% 29.98 in 10.0 mi WNW 16.1 mph 19.6 mph N/A   Clear
5:55 PM 72.5 °F 23.4 °F 16% 29.97 in 10.0 mi WSW 9.2 mph - N/A   Clear
6:15 PM 70.7 °F 21.9 °F 16% 29.97 in 10.0 mi SW 11.5 mph 18.4 mph N/A   Clear
6:35 PM 69.6 °F 24.4 °F 18% 29.96 in 10.0 mi SSW 29.9 mph 36.8 mph N/A   Clear
6:55 PM 68.9 °F 24.3 °F 19% 29.96 in 10.0 mi SSW 18.4 mph - N/A   Clear
7:15 PM 68.7 °F 23.0 °F 18% 29.95 in 10.0 mi SW 15.0 mph - N/A   Clear
7:35 PM 67.5 °F 22.3 °F 18% 29.95 in 10.0 mi SW 16.1 mph 25.3 mph N/A   Clear
7:55 PM 67.1 °F 18.0 °F 15% 29.94 in 10.0 mi SW 19.6 mph 27.6 mph N/A   Clear
8:15 PM 67.5 °F 16.7 °F 14% 29.93 in 10.0 mi WSW 12.7 mph - N/A   Clear
8:35 PM 64.0 °F 16.3 °F 16% 29.94 in 10.0 mi SW 9.2 mph - N/A   Clear
8:55 PM 63.5 °F 18.1 °F 17% 29.94 in 10.0 mi WSW 9.2 mph - N/A   Scattered Clouds
9:15 PM 65.3 °F 16.2 °F 15% 29.94 in 10.0 mi West 11.5 mph - N/A   Scattered Clouds
9:35 PM 63.7 °F 15.4 °F 15% 29.95 in 10.0 mi West 10.4 mph - N/A   Scattered Clouds
9:55 PM 63.5 °F 14.2 °F 15% 29.96 in 10.0 mi NW 6.9 mph 16.1 mph N/A   Clear
10:15 PM 62.2 °F 14.4 °F 16% 29.98 in 10.0 mi West 11.5 mph - N/A   Clear
10:35 PM 63.0 °F 19.2 °F 19% 29.98 in 10.0 mi WNW 15.0 mph - N/A   Scattered Clouds
10:55 PM 61.9 °F 21.2 °F 21% 29.98 in 10.0 mi NW 18.4 mph 24.2 mph N/A   Clear
11:15 PM 60.8 °F 22.1 °F 23% 29.99 in 10.0 mi NW 16.1 mph - N/A   Clear
11:35 PM 60.1 °F 22.8 °F 24% 29.99 in 10.0 mi NW 16.1 mph - N/A   Clear
11:55 PM 59.5 °F 24.3 °F 26% 29.99 in 10.0 mi NW 16.1 mph 21.9 mph N/A   Clear